Wind_Speed
7 7 8 8 7 7 8 8 9 10 10 11 10 10 11 11 12 12 13 14 15 15 16 16 17 18 19 19 20 21 21 22 22 23 24 24 24 24
7 7 8 8 9 9 9 9 10 10 11 12 12 12 12 13 13 14 15 15 15 15 16 17 18 20 20 21 22 23 24 24 24 24 25 25 26 26
8 9 8 9 10 10 10 11 11 12 12 13 13 13 14 14 15 15 15 15 16 16 17 19 20 21 21 22 22 23 24 24 25 25 26 26 27 28
9 10 10 11 11 11 11 12 12 13 14 14 14 15 15 16 15 15 16 17 17 18 19 20 21 21 22 22 23 23 24 25 26 27 27 27 28 28
11 12 12 12 13 13 13 13 13 14 14 14 15 15 16 16 16 17 17 18 18 19 20 20 21 22 22 22 24 24 25 26 26 27 28 28 29 29
13 13 13 13 14 14 14 14 14 14 15 15 16 17 17 17 18 18 19 19 20 20 21 21 22 22 23 24 25 26 27 27 28 28 28 29 30 31
13 13 14 14 15 15 15 15 16 16 16 17 18 19 19 19 20 20 21 21 21 22 22 23 23 23 24 25 26 27 27 28 29 29 30 31 32 33
14 15 16 16 16 16 17 17 17 18 19 19 19 19 20 21 21 22 22 22 22 23 24 24 24 25 26 27 27 28 28 29 30 32 32 33 34 35
15 16 16 17 17 17 17 17 18 18 19 20 20 20 21 22 22 23 23 23 24 24 24 25 26 26 27 28 28 29 30 31 32 33 34 35 35 36
17 17 17 18 18 18 18 18 19 19 20 20 21 22 22 23 23 24 25 25 25 25 26 26 27 28 28 29 30 31 32 32 33 33 34 35 36 37
17 18 18 18 18 18 19 19 19 20 21 22 22 22 23 23 24 25 26 26 26 26 27 28 28 29 30 30 31 33 33 34 34 35 35 36 37 37
18 18 19 19 19 20 20 21 21 22 22 23 23 23 24 25 25 26 26 27 27 28 28 29 29 30 30 31 33 34 34 34 35 35 36 37 38 38
19 20 20 20 21 21 22 22 23 23 23 24 24 25 26 26 26 27 28 29 29 30 30 30 30 30 31 33 34 35 35 35 35 36 37 37 38 39
21 21 21 22 22 23 23 24 24 24 25 25 25 26 27 27 28 28 29 30 30 31 30 31 31 32 33 34 35 35 35 36 36 37 38 38 39 39
22 22 23 23 24 24 24 24 25 26 26 26 26 27 28 28 29 29 30 31 31 31 32 32 33 34 34 35 35 35 36 36 37 38 38 39 39 40
24 24 24 24 25 25 25 26 27 28 28 28 28 28 29 29 30 31 31 31 32 33 33 34 34 35 35 35 36 36 37 37 38 39 39 39 39 39
26 26 25 26 26 27 27 28 28 29 29 29 29 29 30 31 31 31 32 32 33 34 35 35 35 35 36 36 36 37 37 38 38 39 39 39 39 39
27 26 26 27 27 28 28 29 30 30 30 30 29 30 31 32 32 32 33 34 34 35 35 35 35 35 35 35 36 37 38 38 39 39 39 39 39 38
28 27 27 28 28 28 29 30 30 31 31 30 31 32 32 33 33 33 34 35 35 35 35 35 36 36 36 35 36 37 38 39 39 39 39 38 38 38
28 29 29 29 29 29 30 31 32 31 31 32 32 33 33 33 33 34 34 35 36 36 36 36 36 36 36 36 36 37 38 39 39 39 39 38 38 37
29 29 29 30 30 30 31 32 32 32 32 33 33 34 34 34 34 35 35 36 37 37 36 37 37 37 37 38 38 37 38 39 39 38 38 37 37 36
30 31 30 30 31 31 32 32 32 33 33 34 35 35 35 35 35 36 36 37 37 37 37 37 37 38 38 39 38 38 38 38 38 38 38 37 37 36
31 31 31 31 32 32 32 32 33 33 34 34 34 34 35 35 36 37 37 37 37 37 38 38 38 39 39 39 39 38 38 37 37 37 37 37 36 35
Wind_Direction
292 284 286 285 283 285 285 284 284 284 284 282 281 286 288 288 285 287 285 286 286 284 282 282 282 284 283 279 280 280 280 279 279 280 281 282 282 283
295 290 289 287 287 290 287 287 287 286 286 285 284 286 287 288 287 286 285 286 287 286 286 284 285 284 284 281 281 281 282 281 281 281 282 282 283 283
294 296 294 292 290 287 286 287 287 287 287 286 285 286 287 288 288 289 288 288 287 286 287 287 286 287 286 284 284 285 284 286 285 284 285 284 283 283
300 300 297 295 292 288 286 286 286 286 287 286 284 286 286 287 291 292 292 291 291 289 289 292 289 289 287 286 285 286 287 288 288 285 285 285 284 284
298 295 295 296 295 292 288 287 286 288 290 289 289 288 286 286 288 290 292 293 291 290 291 293 293 290 289 289 289 289 289 289 288 287 286 286 286 287
297 295 294 294 294 293 290 288 287 289 291 290 291 290 287 286 289 291 292 292 292 291 292 293 294 294 293 292 291 290 289 288 288 288 287 287 288 288
297 295 296 295 292 292 292 292 290 290 292 292 293 291 288 286 288 290 292 293 293 292 292 293 294 294 294 293 292 292 291 290 289 289 289 289 288 288
298 295 295 294 292 293 293 293 293 293 293 293 294 292 290 287 287 289 290 291 292 292 293 294 294 294 294 294 294 294 293 292 291 290 290 290 290 289
300 297 295 292 290 293 294 295 295 295 295 295 295 294 291 290 289 289 290 291 293 292 293 294 294 294 295 295 295 294 294 294 293 292 292 292 292 292
298 297 295 293 291 293 296 297 295 295 297 297 296 294 293 291 291 291 292 292 292 293 295 296 295 295 295 295 295 296 296 296 295 295 294 293 293 293
296 294 293 293 292 292 293 294 294 294 296 296 296 295 295 294 294 294 293 292 292 294 296 297 296 296 296 296 297 298 297 297 296 295 295 295 295 295
294 293 293 294 291 290 292 293 294 295 296 296 295 295 296 295 295 295 295 294 295 296 297 296 296 297 297 297 298 299 299 298 297 297 296 296 297 297
294 293 292 293 293 294 293 293 294 296 296 296 296 295 295 295 295 295 295 296 295 296 296 296 296 297 297 298 299 299 299 299 299 299 299 299 298 298
295 294 294 293 294 295 295 294 293 294 295 295 296 296 296 296 295 294 295 296 296 296 296 296 296 297 297 298 299 299 299 300 300 300 299 299 299 299
295 294 294 293 293 293 294 294 293 294 295 295 296 297 298 297 296 296 297 297 297 296 295 295 295 296 297 298 299 299 299 299 300 300 300 300 300 301
294 293 292 292 293 293 292 292 293 293 293 294 295 297 297 297 298 298 297 298 298 298 298 297 297 297 297 298 299 300 300 301 301 302 302 302 302 302
294 292 291 291 293 293 292 293 293 292 292 293 294 295 296 297 298 298 297 298 298 299 299 298 298 298 299 300 300 300 301 302 303 303 302 302 303 303
294 294 293 294 294 293 293 294 294 293 293 293 293 294 295 296 297 297 297 298 299 300 300 300 300 300 301 301 301 301 302 303 304 304 303 303 303 302
292 292 293 293 293 293 293 294 295 294 293 293 294 294 295 296 297 298 298 299 299 299 299 300 301 301 302 303 303 303 303 303 303 304 303 303 302 302
292 292 293 293 292 292 293 294 295 294 294 295 296 296 296 297 297 298 299 299 299 299 300 301 301 301 302 303 304 304 304 303 304 304 304 303 302 302
292 293 293 294 294 294 294 294 294 295 295 295 296 298 297 298 298 298 299 299 299 299 299 301 301 301 301 302 303 304 303 304 304 304 304 303 303 303
292 293 294 294 294 295 294 294 294 295 295 296 296 297 299 299 299 299 299 300 300 300 299 300 300 301 301 302 302 303 305 305 305 305 305 304 303 303
291 292 292 293 293 293 294 294 295 295 295 296 297 298 299 300 300 299 299 300 300 299 299 300 300 300 301 302 302 303 303 304 305 305 306 305 303 304
Height
5878 5878 5878 5878 5877 5877 5876 5876 5876 5876 5875 5874 5874 5873 5872 5872 5871 5870 5869 5868 5867 5866 5866 5865 5864 5863 5862 5862 5861 5861 5860 5859 5858 5857 5856 5855 5854 5853
5877 5876 5876 5876 5875 5875 5874 5874 5874 5873 5873 5872 5871 5871 5870 5869 5868 5867 5866 5865 5863 5862 5862 5861 5860 5859 5858 5857 5856 5855 5855 5854 5853 5852 5850 5849 5848 5846
5875 5874 5874 5874 5873 5873 5872 5872 5871 5871 5870 5869 5868 5867 5867 5866 5864 5863 5862 5861 5860 5858 5858 5857 5856 5854 5853 5852 5851 5850 5849 5848 5846 5845 5844 5842 5841 5839
5873 5873 5872 5871 5871 5870 5869 5869 5868 5867 5867 5866 5865 5864 5863 5862 5861 5860 5858 5857 5856 5854 5853 5852 5851 5849 5848 5847 5845 5844 5843 5841 5840 5838 5837 5835 5834 5832
5871 5870 5870 5869 5868 5867 5866 5866 5865 5864 5863 5862 5861 5860 5859 5858 5857 5856 5855 5853 5851 5850 5849 5847 5846 5844 5843 5841 5840 5838 5836 5835 5833 5831 5830 5828 5826 5824
5869 5868 5867 5866 5865 5864 5863 5862 5862 5861 5860 5859 5858 5856 5855 5854 5853 5852 5850 5849 5847 5845 5844 5842 5840 5839 5837 5835 5834 5832 5830 5828 5826 5824 5822 5820 5818 5816
5866 5865 5864 5863 5862 5861 5860 5859 5858 5858 5857 5855 5854 5852 5851 5850 5848 5847 5846 5844 5842 5840 5839 5837 5835 5833 5831 5829 5827 5825 5823 5821 5819 5817 5814 5812 5810 5808
5863 5861 5860 5859 5858 5857 5856 5855 5854 5854 5853 5851 5850 5848 5846 5845 5843 5842 5840 5839 5837 5835 5833 5831 5829 5827 5824 5822 5820 5818 5815 5813 5811 5808 5806 5804 5801 5798
5859 5857 5857 5855 5854 5853 5852 5851 5850 5849 5848 5847 5845 5843 5841 5839 5838 5836 5834 5832 5831 5829 5826 5824 5822 5820 5817 5815 5813 5810 5808 5805 5803 5800 5797 5794 5791 5789
5855 5853 5852 5851 5851 5849 5848 5847 5846 5844 5843 5841 5840 5838 5836 5834 5832 5830 5828 5826 5824 5822 5820 5818 5815 5813 5810 5807 5805 5802 5799 5797 5794 5791 5788 5785 5782 5779
5851 5849 5848 5847 5846 5845 5844 5842 5841 5839 5838 5836 5834 5831 5829 5828 5826 5824 5822 5820 5818 5815 5813 5810 5807 5805 5802 5799 5796 5794 5791 5787 5784 5781 5778 5775 5771 5768
5846 5845 5844 5842 5841 5840 5839 5837 5835 5834 5832 5830 5828 5826 5823 5821 5819 5817 5815 5813 5810 5808 5805 5803 5800 5797 5794 5791 5788 5785 5781 5778 5775 5772 5768 5765 5761 5757
5841 5840 5838 5837 5836 5834 5832 5831 5829 5827 5825 5823 5821 5819 5817 5815 5812 5810 5808 5806 5803 5800 5798 5795 5792 5789 5786 5783 5779 5775 5772 5769 5765 5761 5758 5754 5750 5747
5836 5834 5832 5831 5830 5828 5826 5824 5823 5821 5819 5817 5815 5812 5810 5808 5805 5803 5800 5798 5795 5792 5790 5787 5784 5781 5777 5774 5770 5766 5763 5759 5755 5751 5748 5744 5740 5736
5830 5828 5826 5825 5823 5822 5820 5818 5816 5814 5812 5810 5807 5805 5803 5800 5797 5795 5792 5789 5786 5784 5781 5778 5775 5772 5768 5765 5761 5757 5754 5750 5746 5742 5737 5733 5729 5725
5823 5821 5820 5818 5817 5815 5813 5811 5809 5806 5804 5802 5800 5797 5795 5792 5789 5787 5784 5781 5778 5775 5772 5768 5765 5762 5758 5755 5751 5747 5743 5740 5736 5731 5727 5722 5718 5713
5816 5815 5813 5811 5809 5807 5805 5803 5801 5799 5796 5794 5792 5789 5787 5784 5781 5778 5775 5772 5769 5765 5762 5759 5755 5751 5748 5745 5741 5737 5733 5729 5725 5721 5716 5712 5707 5703
5810 5808 5806 5804 5802 5799 5797 5795 5793 5791 5788 5786 5783 5781 5778 5775 5773 5769 5766 5763 5760 5756 5753 5749 5745 5742 5738 5734 5731 5727 5723 5719 5715 5710 5706 5702 5697 5693
5802 5800 5798 5796 5794 5791 5789 5787 5785 5782 5780 5777 5775 5772 5769 5766 5764 5761 5757 5754 5751 5747 5743 5740 5736 5732 5729 5725 5721 5717 5713 5708 5704 5700 5695 5691 5687 5682
5794 5792 5790 5787 5785 5783 5781 5778 5776 5773 5771 5768 5766 5763 5760 5757 5754 5751 5748 5744 5741 5737 5734 5730 5726 5723 5719 5715 5711 5707 5702 5698 5694 5689 5685 5680 5676 5671
5785 5783 5781 5779 5776 5774 5772 5769 5767 5764 5762 5759 5757 5754 5751 5748 5744 5741 5738 5734 5731 5727 5724 5720 5716 5712 5708 5704 5701 5696 5692 5687 5682 5678 5674 5669 5666 5661
5776 5774 5772 5770 5767 5765 5763 5760 5758 5755 5753 5750 5747 5744 5741 5738 5735 5731 5728 5724 5721 5717 5713 5710 5705 5701 5698 5694 5690 5686 5681 5677 5672 5667 5662 5659 5654 5650
5768 5765 5763 5761 5758 5756 5754 5751 5748 5745 5743 5740 5737 5734 5731 5728 5725 5721 5717 5714 5710 5706 5703 5699 5695 5691 5687 5683 5679 5675 5671 5667 5662 5657 5653 5648 5644 5640